Hourly Data Report for April 08, 2021

TORONTO CITY
ONTARIO
Current Station Operator: ECCC - MSC

43°40'00.000" N
79°24'00.000" W
112.50 m
6158355
71508
XTO

Download Data

Hourly Data (April 2021)
Hourly Data Report for April 8, 2021
TIME
LST
Temp Definition
°C
Dew Point Definition
°C
Rel Hum Definition
%
Precip. Amount Definition
mm

Wind Dir Definition
10's deg

Wind Spd Definition
km/h
Visibility Definition
km
Stn Press Definition
kPa
Hmdx Definition


Wind Chill Definition


Weather Definition


00:00 12.7 1.1 45 0.0       100.18     LegendNANA
01:00 12.5 3.0 52 0.0       100.19     LegendNANA
02:00 11.9 4.3 60 0.0       100.15     LegendNANA
03:00 11.4 5.1 65 0.0       100.11     LegendNANA
04:00 10.5 4.4 66 0.0       100.07     LegendNANA
05:00 10.6 5.2 69 0.0       100.06     LegendNANA
06:00 10.7 5.7 71 0.0       100.06     LegendNANA
07:00 11.3 5.7 68 0.0       100.09     LegendNANA
08:00 11.9 5.5 65 0.0       100.10     LegendNANA
09:00 13.8 5.3 56 0.0       100.09     LegendNANA
10:00 14.3 4.2 51 0.0       100.05     LegendNANA
11:00 15.5 4.4 48 0.0       100.04     LegendNANA
12:00 15.9 4.0 45 0.0       99.98     LegendNANA
13:00 16.1 4.5 46 0.0       99.92     LegendNANA
14:00 17.0 5.1 45 0.0       99.84     LegendNANA
15:00 18.2 5.4 43 0.0       99.78     LegendNANA
16:00 18.7 5.9 43 0.0       99.71     LegendNANA
17:00 19.3 6.0 42 0.0       99.65     LegendNANA
18:00 18.8 5.1 40 0.0       99.62     LegendNANA
19:00 18.5 4.6 40 0.0       99.58     LegendNANA
20:00 18.1 4.6 41 0.0       99.59     LegendNANA
21:00 16.4 5.1 47 0.0       99.60     LegendNANA
22:00 15.8 5.5 50 0.0       99.65     LegendNANA
23:00 14.5 5.4 54 0.0       99.66     LegendNANA

Notes on Data Quality.

Legend

  • E = Estimated
  • M = Missing
  • NA = Not Available*
  • [empty] = Indicates an unobserved value
Date modified: